When you browse on this site, cookies collect data to enhance your experience and personalize the content and advertising you see.
Visit our Privacy Policy to learn more. By continuing to use the site, you agree to this use of cookies and data.
  • In Lithuania
  • List of Countries
  • For 7 days
  • Water Temperature
  • Weather Map
  • Weather Widgets
  • user-avatar
    Login

    Hourly Weather San Luis

    Today, 28 March, Saturday

    Time Temperature Precipitation Wind Pressure Humidity
    00:00 +18°C° 0 mm 3 mps 695 mmHg 64%
    01:00 +18°C° 0 mm 3 mps 695 mmHg 66%
    02:00 +18°C° 0 mm 4 mps 695 mmHg 68%
    03:00 +18°C° 0 mm 3 mps 695 mmHg 70%
    04:00 +17°C° 0 mm 3 mps 695 mmHg 72%
    05:00 +17°C° 0 mm 3 mps 694 mmHg 74%
    06:00 +18°C° 0 mm 3 mps 695 mmHg 70%
    07:00 +19°C° 0 mm 3 mps 696 mmHg 67%
    08:00 +21°C° 0 mm 3 mps 696 mmHg 63%
    09:00 +22°C° 0 mm 3 mps 697 mmHg 56%
    10:00 +25°C° 0 mm 3 mps 697 mmHg 49%
    11:00 +27°C° 0 mm 2 mps 698 mmHg 43%
    12:00 +28°C° 0 mm 2 mps 697 mmHg 39%
    13:00 +28°C° 0 mm 2 mps 697 mmHg 36%
    14:00 +29°C° 0 mm 1 mps 696 mmHg 33%
    15:00 +29°C° 0 mm 2 mps 696 mmHg 33%
    16:00 +29°C° 0 mm 2 mps 696 mmHg 32%
    17:00 +29°C° 0 mm 2 mps 695 mmHg 32%
    18:00 +27°C° 0 mm 2 mps 696 mmHg 39%
    19:00 +25°C° 0 mm 3 mps 696 mmHg 47%
    20:00 +21°C° 0 mm 4 mps 696 mmHg 54%
    21:00 +21°C° 0 mm 3 mps 696 mmHg 59%
    22:00 +20°C° 0 mm 3 mps 697 mmHg 64%
    23:00 +19°C° 0 mm 2 mps 697 mmHg 69%

    Tomorrow, 29 March, Sunday

    Time Temperature Precipitation Wind Pressure Humidity
    00:00 +19°C° 0 mm 2 mps 697 mmHg 71%
    01:00 +19°C° 0 mm 2 mps 697 mmHg 74%
    02:00 +19°C° 0 mm 1 mps 697 mmHg 76%
    03:00 +19°C° 0 mm 1 mps 697 mmHg 78%
    04:00 +19°C° 0 mm 1 mps 698 mmHg 79%
    05:00 +18°C° 0 mm 1 mps 698 mmHg 81%
    06:00 +20°C° 0 mm 1 mps 698 mmHg 76%
    07:00 +21°C° 0 mm 1 mps 699 mmHg 72%
    08:00 +21°C° 0 mm 2 mps 700 mmHg 67%
    09:00 +24°C° 0 mm 1 mps 700 mmHg 61%
    10:00 +25°C° 0 mm 1 mps 700 mmHg 55%
    11:00 +27°C° 0 mm 1 mps 701 mmHg 49%
    12:00 +27°C° 0 mm 1 mps 700 mmHg 46%
    13:00 +28°C° 0 mm 1 mps 700 mmHg 42%
    14:00 +29°C° 0 mm 1 mps 699 mmHg 38%
    15:00 +29°C° 0 mm 1 mps 699 mmHg 38%
    16:00 +29°C° 0 mm 2 mps 699 mmHg 38%
    17:00 +29°C° 0 mm 2 mps 699 mmHg 37%
    18:00 +28°C° 0 mm 3 mps 699 mmHg 42%
    19:00 +26°C° 0 mm 3 mps 699 mmHg 47%
    20:00 +23°C° 0 mm 4 mps 699 mmHg 52%
    21:00 +24°C° 0 mm 3 mps 699 mmHg 55%
    22:00 +22°C° 0 mm 3 mps 699 mmHg 58%
    23:00 +21°C° 0 mm 3 mps 699 mmHg 62%

    Day after tomorrow, 30 March, Monday

    Time Temperature Precipitation Wind Pressure Humidity
    00:00 +21°C° 0 mm 3 mps 699 mmHg 64%
    01:00 +21°C° 0 mm 2 mps 698 mmHg 66%
    02:00 +21°C° 0 mm 2 mps 698 mmHg 68%
    03:00 +21°C° 0 mm 2 mps 698 mmHg 69%
    04:00 +21°C° 0 mm 2 mps 698 mmHg 70%
    05:00 +21°C° 0 mm 3 mps 697 mmHg 72%
    06:00 +22°C° 0 mm 3 mps 698 mmHg 69%
    07:00 +24°C° 0 mm 3 mps 698 mmHg 67%
    08:00 +24°C° 0 mm 3 mps 698 mmHg 65%
    09:00 +26°C° 0.1 mm 3 mps 699 mmHg 60%
    10:00 +27°C° 0.1 mm 3 mps 699 mmHg 56%
    11:00 +29°C° 0.1 mm 4 mps 699 mmHg 51%
    12:00 +29°C° 0.2 mm 3 mps 699 mmHg 51%
    13:00 +29°C° 0.2 mm 3 mps 698 mmHg 51%
    14:00 +30°C° 0.2 mm 3 mps 698 mmHg 50%
    15:00 +29°C° 0.1 mm 3 mps 698 mmHg 53%
    16:00 +28°C° 0.1 mm 3 mps 697 mmHg 55%
    17:00 +28°C° 0.1 mm 3 mps 697 mmHg 57%
    18:00 +26°C° 0.1 mm 3 mps 697 mmHg 64%
    19:00 +25°C° 0.1 mm 2 mps 698 mmHg 70%
    20:00 +24°C° 0.1 mm 2 mps 698 mmHg 76%
    21:00 +23°C° 0.2 mm 2 mps 698 mmHg 78%
    22:00 +23°C° 0.2 mm 1 mps 698 mmHg 80%
    23:00 +22°C° 0.2 mm 1 mps 698 mmHg 81%

    31 March, Tuesday

    Time Temperature Precipitation Wind Pressure Humidity
    00:00 +21°C° 0.2 mm 2 mps 698 mmHg 84%
    01:00 +20°C° 0.2 mm 2 mps 698 mmHg 87%
    02:00 +20°C° 0.2 mm 3 mps 698 mmHg 90%
    03:00 +20°C° 0.1 mm 3 mps 698 mmHg 91%
    04:00 +20°C° 0.1 mm 3 mps 697 mmHg 91%
    05:00 +19°C° 0.1 mm 3 mps 697 mmHg 92%
    06:00 +20°C° 0 mm 3 mps 698 mmHg 89%
    07:00 +21°C° 0 mm 3 mps 698 mmHg 87%
    08:00 +21°C° 0 mm 3 mps 698 mmHg 84%
    09:00 +24°C° 0.4 mm 2 mps 698 mmHg 78%
    10:00 +25°C° 0.4 mm 2 mps 698 mmHg 73%
    11:00 +27°C° 0.4 mm 2 mps 698 mmHg 67%
    12:00 +27°C° 0.8 mm 2 mps 698 mmHg 65%
    13:00 +27°C° 0.8 mm 2 mps 698 mmHg 64%
    14:00 +28°C° 0.8 mm 2 mps 697 mmHg 63%
    15:00 +27°C° 0.5 mm 2 mps 697 mmHg 64%
    16:00 +27°C° 0.5 mm 2 mps 696 mmHg 66%
    17:00 +27°C° 0.5 mm 3 mps 696 mmHg 67%
    18:00 +25°C° 0.2 mm 4 mps 696 mmHg 75%
    19:00 +23°C° 0.2 mm 5 mps 696 mmHg 83%
    20:00 +21°C° 0.2 mm 5 mps 696 mmHg 90%
    21:00 +21°C° 0.2 mm 5 mps 697 mmHg 90%
    22:00 +21°C° 0.2 mm 4 mps 697 mmHg 90%
    23:00 +21°C° 0.2 mm 3 mps 697 mmHg 90%

    1 April, Wednesday

    Time Temperature Precipitation Wind Pressure Humidity
    00:00 +20°C° 0.3 mm 3 mps 697 mmHg 91%
    01:00 +20°C° 0.3 mm 3 mps 697 mmHg 91%
    02:00 +20°C° 0.3 mm 3 mps 696 mmHg 91%
    03:00 +20°C° 0 mm 3 mps 696 mmHg 91%
    04:00 +20°C° 0 mm 3 mps 696 mmHg 91%
    05:00 +20°C° 0 mm 3 mps 696 mmHg 92%
    06:00 +20°C° 0 mm 3 mps 696 mmHg 89%
    07:00 +21°C° 0 mm 3 mps 697 mmHg 87%
    08:00 +21°C° 0 mm 2 mps 697 mmHg 85%
    09:00 +24°C° 0.3 mm 3 mps 698 mmHg 79%
    10:00 +25°C° 0.3 mm 3 mps 698 mmHg 73%
    11:00 +26°C° 0.3 mm 4 mps 698 mmHg 67%
    12:00 +26°C° 0.2 mm 4 mps 698 mmHg 67%
    13:00 +26°C° 0.2 mm 5 mps 698 mmHg 68%
    14:00 +26°C° 0.2 mm 6 mps 698 mmHg 68%
    15:00 +24°C° 0.1 mm 6 mps 698 mmHg 72%
    16:00 +23°C° 0.1 mm 7 mps 698 mmHg 75%
    17:00 +22°C° 0.1 mm 7 mps 698 mmHg 79%
    18:00 +21°C° 0 mm 7 mps 698 mmHg 82%
    19:00 +20°C° 0 mm 7 mps 699 mmHg 85%
    20:00 +19°C° 0 mm 6 mps 700 mmHg 87%
    21:00 +19°C° 0 mm 6 mps 700 mmHg 88%
    22:00 +19°C° 0 mm 6 mps 701 mmHg 88%
    23:00 +17°C° 0 mm 6 mps 702 mmHg 88%

    2 April, Thursday

    Time Temperature Precipitation Wind Pressure Humidity
    00:00 +17°C° 0 mm 5 mps 702 mmHg 89%
    01:00 +17°C° 0 mm 4 mps 702 mmHg 91%
    02:00 +17°C° 0 mm 4 mps 702 mmHg 92%
    03:00 +16°C° 0 mm 3 mps 702 mmHg 91%
    04:00 +16°C° 0 mm 3 mps 702 mmHg 90%
    05:00 +14°C° 0 mm 3 mps 702 mmHg 90%
    06:00 +16°C° 0 mm 3 mps 703 mmHg 81%
    07:00 +17°C° 0 mm 3 mps 703 mmHg 72%
    08:00 +17°C° 0 mm 3 mps 704 mmHg 63%
    09:00 +19°C° 0 mm 4 mps 704 mmHg 51%
    10:00 +21°C° 0 mm 5 mps 705 mmHg 40%
    11:00 +22°C° 0 mm 5 mps 705 mmHg 29%
    12:00 +23°C° 0 mm 6 mps 705 mmHg 29%
    13:00 +23°C° 0 mm 6 mps 704 mmHg 30%
    14:00 +24°C° 0 mm 6 mps 704 mmHg 30%
    15:00 +23°C° 0 mm 6 mps 703 mmHg 29%
    16:00 +23°C° 0 mm 6 mps 703 mmHg 29%
    17:00 +22°C° 0 mm 6 mps 702 mmHg 29%
    18:00 +20°C° 0 mm 5 mps 702 mmHg 32%
    19:00 +18°C° 0 mm 4 mps 702 mmHg 35%
    20:00 +16°C° 0 mm 3 mps 702 mmHg 39%
    21:00 +16°C° 0 mm 3 mps 703 mmHg 40%
    22:00 +14°C° 0 mm 3 mps 703 mmHg 42%
    23:00 +13°C° 0 mm 3 mps 703 mmHg 43%
    Show more